カタログに戻る

TITAN 3C TRANSTAGE DEB

LostHEO
NORAD 28804·DEBRIS·🇺🇸 United States

打ち上げ Dec 21, 1965 から Cape Canaveral Space Force Station

Loading…

次のパス (今後24時間)

TLE

古いSource: Space-Track

元期: Jan 5, 2026, 14:00 UTC

1 28804U 65108BW  26005.58374318 -.00000100  00000-0  00000-0 0  9996
2 28804  27.4680  90.0965 6604344 189.8618 349.5966  2.64743849118052

AllMySatでTITAN 3C TRANSTAGE DEBをリアルタイム追跡

Download on the App Store